Temperature
18 18 18 17 17 17 17 17 17 17 17 17 17 17 17 17 17 17 17 17 17 17 17 17 17 17 17 17 17 17 16 16 16 16 16 16 16 16 16 16 16 16 16
18 18 18 18 17 17 17 17 17 17 17 17 17 17 17 17 17 17 17 17 17 17 17 17 17 17 17 17 17 17 17 16 16 16 16 16 16 16 16 16 16 16 16
18 18 18 18 17 17 17 17 17 17 17 17 17 17 17 17 17 17 17 17 17 17 17 17 17 17 17 17 17 17 17 16 16 16 16 16 16 16 16 16 16 16 15
18 18 18 18 17 17 17 17 17 17 17 17 17 17 17 17 17 17 17 17 17 17 17 17 17 17 17 17 17 17 17 16 16 16 16 16 16 16 16 16 16 15 15
17 17 18 18 17 17 17 17 17 17 17 17 17 17 17 17 17 17 17 17 17 17 17 17 17 17 17 17 17 17 17 16 16 16 16 16 16 16 16 16 15 15 15
17 17 17 17 17 17 17 17 17 17 17 17 17 17 17 17 17 17 17 17 17 17 17 17 17 17 17 17 17 16 16 16 16 16 16 16 16 16 16 15 15 15 15
17 17 17 17 17 17 17 17 17 17 17 17 17 17 17 17 17 17 17 17 17 17 17 17 17 17 17 17 16 16 16 16 16 16 16 16 16 16 15 15 15 15 15
17 17 17 17 17 17 17 17 17 17 17 17 17 17 17 17 17 17 17 17 17 17 17 17 17 17 17 17 17 17 16 16 16 16 16 16 16 15 15 15 15 15 15
17 17 17 17 17 17 17 17 17 17 17 17 17 17 17 17 17 17 17 17 17 17 17 17 17 17 17 17 16 16 16 16 16 16 16 16 16 15 15 15 15 15 15
17 17 17 17 17 17 17 17 17 17 17 17 17 17 17 17 17 16 17 17 17 17 17 17 17 17 16 16 16 16 16 16 16 16 16 16 15 15 15 15 15 15 14
17 17 17 17 17 17 17 17 17 17 17 17 17 17 17 16 17 16 16 16 17 17 17 16 16 16 16 16 16 16 16 16 16 16 15 15 15 15 15 15 14 14 14
17 17 17 17 17 17 17 17 17 17 17 17 17 16 16 16 16 16 16 16 16 16 16 16 16 16 16 16 16 16 16 16 16 15 15 15 15 15 14 14 14 14 14
17 17 17 17 17 17 17 17 17 17 17 16 16 16 16 16 16 16 16 16 16 16 16 16 16 16 16 16 15 15 15 15 15 15 15 15 15 14 14 14 14 14 14
17 17 17 17 17 17 17 17 17 16 16 16 16 16 16 16 16 16 16 16 15 15 15 15 15 15 15 15 15 15 15 15 15 15 15 14 14 14 14 14 14 13 13
17 17 17 17 17 17 17 17 16 16 16 16 16 16 16 16 16 16 16 16 15 15 15 15 15 15 15 15 15 15 15 15 14 14 14 14 14 14 14 13 13 13 13
17 17 17 17 17 17 17 16 16 16 16 16 16 16 16 16 16 16 15 15 15 15 15 15 15 14 14 14 14 14 14 14 14 14 14 13 13 13 13 13 13 12 12
17 17 17 16 16 16 16 16 16 16 16 16 16 16 16 16 16 15 15 15 15 15 15 14 14 14 14 14 14 14 13 13 13 13 13 13 13 13 12 12 12 12 12
17 17 17 16 16 16 16 16 16 16 16 16 16 16 15 15 15 15 15 15 15 14 14 14 14 13 13 13 13 13 13 13 13 13 13 12 12 12 12 12 11 11 11
16 16 16 16 16 16 16 15 15 15 15 15 15 15 15 15 15 15 15 14 14 14 14 14 13 13 13 13 13 13 13 13 12 12 12 12 12 12 11 11 11 11 11
16 16 16 16 16 15 15 15 15 15 15 15 15 15 15 15 14 14 14 14 14 14 13 13 13 13 13 12 12 12 12 12 12 12 11 11 11 11 11 11 10 10 10
16 16 16 15 15 15 15 15 15 15 15 15 14 14 14 14 14 14 14 14 14 13 13 13 12 12 12 12 12 12 12 11 11 11 11 11 10 10 10 10 10 10 10
16 15 15 15 15 15 15 14 14 14 14 14 14 14 14 13 13 13 13 13 13 13 13 12 12 12 12 11 11 11 11 11 11 11 10 10 10 10 10 10 10 10 9
15 15 15 15 15 14 14 14 14 14 14 14 13 13 13 13 13 13 13 13 12 12 12 12 12 12 11 11 11 11 11 11 10 10 10 10 10 10 10 10 9 9 9
15 15 15 15 14 14 14 14 14 14 13 13 13 13 13 13 12 12 12 12 12 12 12 11 11 11 11 11 11 11 11 10 10 10 10 9 9 9 9 9 9 9 9
15 14 14 14 14 14 14 14 14 13 13 13 12 12 12 12 12 12 12 12 12 11 11 11 11 11 11 10 10 10 10 10 10 9 9 9 9 9 9 9 9 9 8
14 14 14 14 14 13 13 13 13 13 13 13 12 12 12 12 12 12 11 11 11 11 11 11 11 10 10 10 10 10 10 9 9 9 9 9 9 9 9 9 8 8 8
Wind_Speed
1 1 1 1 1 1 1 1 1 1 1 1 2 3 3 4 5 6 6 9 10 10 10 11 11 11 11 11 10 10 10 10 9 9 9 9 8 8 8 8 8 7 7
3 2 1 1 1 1 1 1 1 1 0 1 1 2 3 4 5 6 6 7 9 10 11 11 11 12 12 12 12 11 11 11 11 10 10 10 10 9 9 9 9 9 9
4 3 2 1 2 1 1 1 1 1 1 1 1 1 2 4 5 6 6 6 7 9 11 11 12 12 12 12 12 12 12 12 12 12 12 12 11 11 10 10 10 10 10
5 3 2 2 2 2 1 1 1 1 0 1 1 1 1 2 4 5 5 6 6 7 9 11 11 12 12 12 13 13 13 13 13 13 13 13 13 12 12 12 11 11 12
6 5 3 2 2 2 1 1 1 1 1 1 1 1 1 2 3 4 5 6 7 7 7 8 10 12 12 12 12 13 13 14 14 14 14 14 14 14 14 14 13 13 13
6 5 3 3 3 2 1 1 1 1 1 1 1 1 1 2 2 3 4 5 6 7 8 7 8 9 11 12 13 13 13 14 14 14 14 15 15 15 16 15 15 14 14
6 5 3 3 3 3 3 2 2 2 1 1 1 1 1 1 2 2 3 3 4 6 7 7 7 7 8 10 11 12 13 13 13 14 14 14 14 14 15 15 15 15 15
5 5 4 3 3 3 3 3 2 2 2 2 2 1 1 2 1 1 2 3 3 4 5 6 6 7 7 7 8 11 12 12 13 14 14 14 15 14 14 14 14 15 15
4 4 5 4 4 4 4 4 4 4 3 2 2 3 2 3 1 1 1 1 1 2 2 3 4 5 6 6 7 8 11 12 12 12 12 14 14 14 13 13 12 12 12
2 3 4 4 4 3 4 4 4 3 3 3 2 2 2 3 2 1 1 1 1 1 2 2 3 4 5 5 5 7 8 9 11 11 10 9 10 10 10 10 9 9 9
2 2 3 3 3 3 3 3 3 4 3 4 3 2 2 1 2 2 2 1 1 1 2 2 2 3 3 4 4 4 5 6 7 8 8 7 7 7 7 7 6 6 7
1 2 2 3 3 3 3 3 3 4 4 3 3 3 3 3 3 3 3 2 2 1 1 1 2 2 2 2 2 2 3 4 5 5 5 5 5 5 4 4 3 3 3
1 2 2 2 3 3 3 3 3 4 4 4 4 3 4 3 3 3 3 2 2 1 0 0 1 1 1 1 1 2 1 2 3 3 4 4 4 4 4 3 2 2 2
3 2 2 2 2 2 2 2 2 3 3 4 4 3 3 3 3 4 3 3 2 2 1 2 0 1 1 2 2 2 1 1 3 4 4 4 4 4 4 4 4 3 3
2 1 1 1 1 1 1 2 1 2 2 3 3 3 3 3 3 3 3 4 4 3 3 2 1 1 2 2 2 2 2 2 3 3 4 4 5 5 5 5 5 5 5
1 1 1 0 1 1 1 1 1 1 1 2 2 2 2 2 2 2 3 3 3 3 3 1 1 0 1 2 3 3 3 4 4 5 5 5 6 6 7 7 7 6 6
1 1 1 0 0 0 0 1 1 1 1 1 1 1 2 1 1 1 2 2 2 2 2 1 1 1 1 2 3 3 3 3 4 5 6 6 7 7 7 7 7 7 7
1 1 1 1 1 1 0 0 1 1 1 0 0 1 1 1 1 1 2 2 2 2 3 3 1 1 1 2 2 2 3 3 4 5 6 6 7 7 8 7 7 7 7
1 2 2 2 1 2 1 1 1 1 0 0 1 1 1 1 1 1 2 2 2 2 2 3 2 1 1 1 2 2 2 3 3 4 5 5 6 7 8 8 7 7 7
2 2 2 2 2 2 2 1 2 1 1 2 2 2 1 1 2 2 2 2 2 3 3 3 2 1 1 1 1 1 1 1 1 2 3 3 4 5 6 6 6 6 7
2 2 3 3 2 2 1 1 1 1 2 2 2 2 2 2 2 2 2 3 3 3 3 3 2 1 1 1 1 1 1 0 1 0 1 1 2 2 2 4 5 5 5
2 3 2 2 2 2 2 2 2 2 2 2 2 2 2 3 4 4 4 4 4 4 3 3 2 2 2 1 1 1 1 1 0 1 1 0 1 1 2 3 4 5 5
2 3 2 2 2 2 2 2 2 2 2 2 1 1 2 2 3 3 5 6 5 5 3 3 3 2 2 2 3 2 1 1 1 1 1 1 1 1 1 2 5 6 6
2 2 2 2 2 3 3 2 2 2 2 2 2 1 2 2 2 3 4 4 4 3 2 2 2 1 1 2 3 3 2 1 1 1 1 1 0 1 1 2 3 5 7
2 2 2 2 2 3 4 3 3 3 3 3 3 3 2 2 3 4 5 4 3 2 3 4 4 3 2 3 4 3 3 2 0 0 0 1 0 0 1 1 2 4 5
2 2 3 3 3 3 4 4 4 3 3 3 3 4 4 4 4 5 4 3 3 1 2 3 4 4 3 3 4 3 3 2 1 1 1 1 1 1 1 1 1 2 3
Wind_Direction
162 152 118 88 62 64 84 84 88 88 91 129 157 167 170 176 184 188 190 193 195 195 194 193 193 192 191 192 194 194 193 192 192 194 196 198 198 198 196 196 198 201 203
185 177 170 168 215 190 162 159 156 141 119 140 173 178 183 185 193 194 199 201 204 204 205 205 203 201 200 202 203 203 203 203 203 203 205 207 209 208 207 208 211 212 213
199 194 179 198 224 214 155 112 99 99 102 120 171 185 191 196 195 197 201 204 207 213 213 211 212 213 212 212 210 210 212 213 211 210 211 212 213 215 217 217 218 220 221
203 197 195 218 224 201 167 138 136 114 129 151 186 223 201 205 205 203 205 208 210 217 221 220 217 218 220 222 220 216 219 220 219 219 219 220 220 222 224 224 225 226 227
205 197 205 219 206 184 176 181 159 164 184 192 210 232 232 229 224 216 214 217 216 218 223 226 227 226 226 227 226 222 223 225 225 226 227 228 228 228 228 229 229 230 231
206 196 201 205 188 176 188 170 170 176 187 194 215 296 282 252 233 227 225 223 221 222 224 229 235 236 236 237 236 232 228 228 227 228 230 232 234 233 231 232 232 233 234
206 195 202 196 185 189 202 186 170 181 202 153 111 357 339 297 246 247 236 229 229 227 225 228 233 235 239 242 243 240 235 232 230 229 230 233 236 236 237 235 233 234 234
214 209 196 198 194 189 189 192 177 175 205 172 155 148 319 330 327 276 229 224 234 227 225 228 227 229 234 241 245 244 242 239 236 233 231 232 235 235 235 234 235 237 239
228 219 204 197 198 192 203 206 192 187 203 208 188 168 178 228 292 339 303 239 227 215 224 226 229 233 232 235 246 250 246 244 244 243 239 234 231 232 229 232 234 234 235
245 228 207 202 201 199 207 215 201 197 189 210 212 212 202 176 184 264 323 295 254 239 239 235 238 239 234 232 237 245 246 248 243 244 244 237 229 224 222 222 227 229 230
264 231 205 197 201 204 212 217 204 200 199 203 202 190 194 200 195 197 245 273 312 270 245 239 246 249 244 232 227 236 238 240 234 233 233 231 219 209 210 216 222 225 227
274 256 216 202 205 208 216 221 213 206 211 208 206 196 185 187 196 196 217 231 244 277 274 246 245 246 242 235 221 209 218 219 215 211 215 207 202 196 195 195 203 215 217
267 261 230 209 212 215 216 212 208 212 211 208 209 215 212 213 190 184 193 216 229 248 256 280 251 241 224 218 209 183 180 186 187 179 181 183 178 175 170 168 178 180 168
258 265 232 213 214 217 221 204 209 220 212 213 220 216 217 223 205 195 191 188 214 235 225 228 46 102 116 123 129 143 103 161 187 179 175 168 155 151 149 148 141 141 138
270 284 252 230 229 218 208 187 205 230 215 215 223 221 220 226 212 210 200 195 194 221 239 220 201 85 112 95 104 105 102 100 127 143 146 143 141 140 140 131 121 118 116
342 359 340 272 235 196 167 165 196 217 206 237 227 213 221 227 216 202 202 203 202 205 225 205 190 138 104 97 87 97 100 99 108 123 130 132 132 132 130 124 122 119 115
37 32 12 357 6 166 179 181 201 190 210 245 225 199 222 215 203 196 186 190 189 176 195 187 135 122 128 111 88 85 84 91 102 118 126 129 133 133 128 126 125 121 117
34 48 58 59 44 35 53 166 271 230 214 247 242 175 244 218 203 191 179 186 185 180 174 177 174 170 163 142 115 95 84 87 93 102 117 125 131 132 132 129 124 120 117
48 46 60 56 40 42 50 50 43 71 81 65 93 131 207 172 197 184 164 166 170 169 161 166 176 165 120 105 93 81 75 78 95 100 105 117 128 132 131 130 130 129 125
76 54 55 56 54 59 56 51 60 72 71 66 80 83 92 160 183 176 173 161 152 148 145 146 143 126 107 83 110 114 77 44 54 95 101 109 118 127 135 138 142 142 137
85 79 70 55 48 60 57 67 77 84 95 86 72 68 71 88 118 149 153 152 149 145 141 140 137 127 136 152 196 183 177 133 5 148 132 116 125 135 153 164 164 163 158
76 73 71 66 48 38 47 64 93 87 80 91 84 62 57 60 69 85 101 111 129 143 153 153 159 173 199 209 187 178 166 175 224 173 167 209 164 200 196 187 180 178 177
85 75 64 68 52 25 37 49 86 104 91 75 78 75 63 54 73 88 83 83 82 85 113 150 157 178 186 187 176 179 194 215 231 171 160 222 238 238 238 216 198 195 194
87 76 66 60 53 25 30 53 83 93 83 64 58 75 90 69 81 105 101 88 76 62 79 110 142 166 200 193 184 180 166 119 80 92 160 202 224 249 238 221 217 212 208
77 59 58 58 53 23 26 48 89 86 75 54 45 60 86 87 79 104 111 107 87 56 66 91 103 99 106 131 141 127 129 134 125 240 185 196 202 255 280 255 220 214 216
107 83 61 50 52 37 27 47 74 88 75 59 51 50 56 76 80 95 110 116 109 70 76 76 70 64 78 119 145 161 165 163 146 224 193 189 189 186 256 259 239 216 216
Height
1556 1557 1557 1558 1558 1559 1560 1560 1561 1562 1563 1564 1564 1565 1566 1566 1566 1567 1568 1569 1569 1570 1571 1572 1573 1574 1575 1576 1577 1578 1579 1580 1581 1582 1583 1584 1585 1586 1587 1587 1588 1589 1589
1557 1558 1558 1559 1559 1560 1560 1561 1562 1563 1564 1564 1565 1565 1566 1566 1567 1567 1568 1569 1569 1570 1571 1572 1573 1574 1575 1576 1577 1577 1578 1579 1580 1581 1582 1583 1584 1585 1585 1586 1587 1587 1588
1557 1558 1559 1559 1560 1560 1561 1562 1562 1563 1564 1564 1565 1565 1566 1566 1567 1567 1568 1568 1569 1570 1571 1572 1572 1573 1574 1575 1575 1576 1577 1578 1579 1580 1581 1581 1582 1583 1584 1584 1585 1586 1586
1557 1558 1559 1559 1560 1560 1561 1562 1562 1563 1563 1564 1565 1565 1565 1566 1566 1567 1567 1568 1568 1569 1570 1571 1571 1572 1572 1573 1574 1575 1575 1576 1577 1578 1579 1579 1580 1581 1582 1582 1583 1584 1584
1557 1558 1558 1559 1559 1560 1561 1561 1562 1562 1562 1563 1564 1564 1564 1565 1565 1566 1566 1567 1567 1568 1569 1569 1570 1570 1571 1572 1572 1573 1573 1574 1575 1576 1576 1577 1578 1578 1579 1580 1580 1581 1582
1556 1557 1558 1558 1559 1559 1560 1560 1561 1561 1562 1562 1563 1563 1563 1564 1564 1564 1565 1565 1566 1566 1567 1568 1568 1569 1569 1570 1570 1571 1571 1572 1572 1573 1573 1574 1575 1575 1576 1577 1577 1578 1578
1555 1556 1557 1557 1558 1558 1559 1559 1560 1560 1561 1561 1561 1561 1562 1562 1562 1562 1563 1563 1564 1564 1565 1566 1566 1567 1567 1567 1568 1568 1568 1568 1569 1569 1570 1570 1571 1572 1572 1573 1574 1574 1575
1554 1555 1555 1556 1556 1557 1558 1558 1559 1559 1559 1559 1560 1560 1560 1561 1560 1560 1561 1561 1562 1562 1563 1563 1564 1564 1565 1565 1565 1565 1565 1565 1566 1566 1566 1567 1567 1568 1568 1569 1569 1570 1571
1552 1553 1553 1554 1555 1555 1556 1556 1557 1557 1557 1558 1558 1559 1558 1558 1558 1558 1558 1559 1559 1560 1561 1561 1561 1562 1562 1562 1562 1562 1562 1562 1562 1563 1563 1563 1564 1564 1564 1565 1566 1566 1567
1550 1551 1551 1552 1552 1553 1554 1554 1555 1555 1555 1555 1555 1556 1557 1556 1557 1556 1556 1557 1557 1558 1558 1558 1559 1559 1559 1559 1559 1559 1559 1559 1559 1559 1559 1560 1560 1560 1561 1561 1562 1562 1562
1548 1549 1549 1550 1550 1551 1552 1552 1552 1552 1552 1552 1552 1553 1553 1554 1554 1554 1554 1554 1555 1555 1555 1556 1556 1556 1556 1556 1555 1555 1555 1555 1556 1556 1556 1556 1557 1557 1557 1558 1558 1558 1559
1547 1547 1547 1548 1548 1549 1549 1549 1549 1549 1549 1549 1549 1550 1550 1551 1551 1551 1551 1551 1551 1552 1552 1553 1553 1553 1553 1553 1553 1552 1552 1552 1552 1553 1553 1553 1553 1553 1554 1554 1554 1555 1555
1545 1545 1545 1546 1546 1546 1546 1546 1547 1546 1546 1546 1546 1547 1547 1548 1548 1548 1548 1548 1548 1549 1549 1550 1550 1550 1550 1550 1550 1550 1549 1549 1549 1549 1549 1549 1550 1550 1550 1551 1551 1551 1551
1543 1543 1543 1544 1544 1544 1544 1544 1544 1543 1543 1543 1543 1544 1544 1544 1545 1545 1545 1546 1545 1546 1546 1547 1547 1547 1548 1547 1547 1547 1547 1546 1546 1546 1546 1547 1546 1547 1547 1547 1548 1548 1548
1542 1541 1542 1542 1541 1541 1541 1541 1541 1541 1541 1540 1540 1541 1541 1541 1542 1542 1542 1543 1544 1543 1543 1544 1544 1545 1545 1545 1544 1544 1544 1543 1543 1543 1543 1544 1543 1543 1544 1544 1544 1545 1545
1540 1540 1540 1539 1539 1539 1539 1538 1538 1538 1538 1538 1538 1538 1538 1538 1538 1539 1539 1540 1540 1541 1540 1541 1542 1542 1542 1542 1542 1541 1541 1541 1541 1540 1541 1540 1540 1541 1541 1541 1542 1542 1542
1538 1538 1538 1538 1537 1537 1537 1537 1536 1536 1536 1535 1535 1535 1535 1536 1536 1536 1536 1536 1537 1538 1537 1538 1539 1539 1539 1539 1539 1539 1539 1538 1538 1538 1538 1538 1538 1538 1538 1539 1539 1539 1539
1537 1537 1536 1536 1536 1535 1535 1535 1534 1534 1534 1533 1533 1532 1532 1533 1533 1533 1533 1534 1534 1535 1535 1535 1536 1537 1537 1537 1537 1536 1536 1536 1536 1536 1536 1535 1536 1536 1536 1536 1536 1537 1537
1536 1536 1535 1535 1535 1534 1534 1533 1533 1532 1531 1531 1531 1530 1530 1530 1530 1530 1531 1531 1531 1532 1532 1533 1533 1534 1534 1534 1534 1534 1534 1534 1534 1533 1533 1533 1533 1533 1533 1534 1534 1534 1535
1535 1535 1534 1534 1534 1533 1533 1532 1531 1530 1530 1530 1529 1529 1528 1528 1528 1528 1528 1528 1529 1529 1530 1531 1531 1531 1532 1532 1532 1532 1531 1532 1531 1532 1531 1531 1531 1531 1531 1532 1532 1533 1533
1534 1534 1533 1533 1532 1532 1531 1531 1530 1530 1529 1528 1528 1527 1527 1526 1526 1526 1526 1526 1526 1527 1528 1528 1528 1529 1529 1529 1530 1530 1529 1529 1529 1530 1530 1530 1530 1530 1530 1530 1531 1531 1531
1533 1532 1532 1532 1531 1531 1530 1530 1529 1528 1528 1527 1526 1526 1526 1525 1525 1524 1524 1524 1525 1525 1525 1526 1526 1527 1527 1527 1528 1528 1528 1527 1527 1528 1528 1528 1528 1528 1529 1529 1529 1529 1529
1532 1531 1531 1530 1530 1530 1530 1529 1528 1527 1526 1526 1525 1525 1525 1524 1524 1524 1523 1523 1524 1524 1525 1525 1524 1524 1525 1525 1526 1526 1526 1525 1525 1526 1526 1526 1526 1526 1527 1527 1527 1527 1528
1530 1530 1530 1530 1529 1529 1528 1528 1527 1526 1525 1525 1525 1524 1524 1524 1523 1523 1523 1523 1523 1523 1523 1523 1523 1523 1524 1524 1524 1524 1524 1524 1524 1524 1525 1525 1524 1525 1525 1525 1525 1525 1525
1530 1530 1529 1529 1528 1528 1527 1527 1526 1525 1524 1524 1523 1523 1523 1523 1522 1522 1522 1522 1522 1522 1522 1522 1522 1522 1522 1522 1523 1522 1522 1522 1522 1523 1523 1523 1523 1523 1523 1523 1523 1523 1523
1529 1529 1529 1528 1527 1527 1526 1526 1525 1524 1523 1523 1523 1523 1522 1522 1522 1521 1521 1521 1521 1521 1521 1521 1521 1521 1521 1521 1521 1521 1521 1521 1521 1521 1522 1522 1521 1521 1521 1521 1521 1521 1521